Location: Newark
(41.8083°N, 72.2500°W)
Time: 10:26:58
(UTC+00:00)

Explorer 11/Cluster Stage 4 - Pass Details

Date: 07 December 2021
Orbit: 467 x 1255 km, 28.8° (Epoch: 23 January)

Event Time Altitude Azimuth Distance (km) Brightness Sun altitude
Rises 09:40:05 0° 255° (WSW) 3,686 - -25.9°
Reaches altitude 10° 09:43:26 10° 239° (WSW) 2,872 - -25.2°
Exits shadow 09:46:19 17° 216° (SW) 2,462 8.8 -24.7°
Maximum altitude 09:48:14 19° 197° (SSW) 2,412 9.0 -24.4°
Drops below altitude 10° 09:53:27 10° 155° (SSE) 3,152 10.1 -23.4°
Sets 09:57:23 0° 140° (SE) 4,170 11.1 -22.7°
